When you browse on this site, cookies collect data to enhance your experience and personalize the content and advertising you see.
Visit our Privacy Policy to learn more. By continuing to use the site, you agree to this use of cookies and data.
  • In Lithuania
  • List of Countries
  • For 7 days
  • Water Temperature
  • Satellite Maps
  • Weather Map
  • Weather Widgets
  • user-avatar
    Login

    Hourly Weather Pravoegorlykskiy

    Today, 10 December, Monday

    Time Temperature Precipitation Wind Pressure Humidity
    00:00 -1°C° 0 mm 5 mps 751 mmHg 89%
    01:00 -1°C° 0 mm 5 mps 751 mmHg 89%
    02:00 -1°C° 0 mm 5 mps 751 mmHg 89%
    03:00 -1°C° 0 mm 4 mps 751 mmHg 89%
    04:00 -1°C° 0 mm 4 mps 750 mmHg 88%
    05:00 -1°C° 0 mm 5 mps 750 mmHg 88%
    06:00 -2°C° 0 mm 6 mps 750 mmHg 87%
    07:00 -1°C° 0 mm 6 mps 750 mmHg 86%
    08:00 -1°C° 0 mm 6 mps 750 mmHg 86%
    09:00 0°C° 0 mm 7 mps 749 mmHg 84%
    10:00 +2°C° 0 mm 7 mps 749 mmHg 82%
    11:00 +3°C° 0 mm 7 mps 749 mmHg 79%
    12:00 +4°C° 0 mm 7 mps 748 mmHg 77%
    13:00 +4°C° 0 mm 7 mps 748 mmHg 77%
    14:00 +4°C° 0 mm 7 mps 748 mmHg 77%
    15:00 +4°C° 0 mm 7 mps 748 mmHg 77%
    16:00 +4°C° 0 mm 7 mps 748 mmHg 79%
    17:00 +3°C° 0 mm 7 mps 748 mmHg 81%
    18:00 +3°C° 0 mm 7 mps 748 mmHg 83%
    19:00 +3°C° 0 mm 6 mps 748 mmHg 84%
    20:00 +3°C° 0 mm 5 mps 748 mmHg 85%
    21:00 +3°C° 0 mm 5 mps 748 mmHg 86%
    22:00 +4°C° 0 mm 4 mps 748 mmHg 87%
    23:00 +4°C° 0 mm 4 mps 748 mmHg 88%

    Tomorrow, 11 December, Tuesday

    Time Temperature Precipitation Wind Pressure Humidity
    00:00 +4°C° 0 mm 4 mps 748 mmHg 89%
    01:00 +4°C° 0 mm 4 mps 748 mmHg 90%
    02:00 +3°C° 0 mm 4 mps 748 mmHg 91%
    03:00 +3°C° 0 mm 4 mps 748 mmHg 92%
    04:00 +3°C° 0 mm 4 mps 748 mmHg 92%
    05:00 +2°C° 0 mm 5 mps 748 mmHg 92%
    06:00 +2°C° 0 mm 5 mps 747 mmHg 92%
    07:00 +2°C° 0 mm 5 mps 747 mmHg 92%
    08:00 +2°C° 0 mm 5 mps 747 mmHg 91%
    09:00 +3°C° 0 mm 6 mps 747 mmHg 91%
    10:00 +3°C° 0 mm 6 mps 746 mmHg 88%
    11:00 +4°C° 0 mm 6 mps 745 mmHg 85%
    12:00 +5°C° 0 mm 7 mps 745 mmHg 82%
    13:00 +5°C° 0 mm 7 mps 744 mmHg 82%
    14:00 +6°C° 0 mm 7 mps 744 mmHg 82%
    15:00 +6°C° 0 mm 7 mps 743 mmHg 82%
    16:00 +5°C° 0 mm 6 mps 743 mmHg 84%
    17:00 +6°C° 0 mm 5 mps 743 mmHg 87%
    18:00 +6°C° 0 mm 4 mps 744 mmHg 89%
    19:00 +7°C° 0.3 mm 3 mps 744 mmHg 91%
    20:00 +7°C° 0.3 mm 2 mps 744 mmHg 93%
    21:00 +7°C° 0.3 mm 1 mps 745 mmHg 94%
    22:00 +7°C° 0.7 mm 1 mps 745 mmHg 95%
    23:00 +7°C° 0.7 mm 1 mps 745 mmHg 95%

    Day after tomorrow, 12 December, Wednesday

    Time Temperature Precipitation Wind Pressure Humidity
    00:00 +6°C° 0.7 mm 2 mps 746 mmHg 95%
    01:00 +7°C° 0 mm 1 mps 746 mmHg 95%
    02:00 +7°C° 0 mm 1 mps 747 mmHg 94%
    03:00 +7°C° 0 mm 1 mps 747 mmHg 94%
    04:00 +7°C° 0 mm 1 mps 747 mmHg 93%
    05:00 +6°C° 0 mm 1 mps 748 mmHg 93%
    06:00 +6°C° 0 mm 1 mps 748 mmHg 92%
    07:00 +7°C° 0 mm 1 mps 748 mmHg 91%
    08:00 +6°C° 0 mm 2 mps 749 mmHg 90%
    09:00 +6°C° 0 mm 2 mps 749 mmHg 88%
    10:00 +7°C° 0.1 mm 2 mps 749 mmHg 83%
    11:00 +8°C° 0.1 mm 2 mps 749 mmHg 78%
    12:00 +9°C° 0.1 mm 2 mps 749 mmHg 73%
    13:00 +9°C° 0.1 mm 2 mps 749 mmHg 72%
    14:00 +9°C° 0.1 mm 2 mps 749 mmHg 72%
    15:00 +10°C° 0.1 mm 1 mps 748 mmHg 72%
    16:00 +10°C° 0.1 mm 1 mps 749 mmHg 76%
    17:00 +9°C° 0.1 mm 1 mps 749 mmHg 79%
    18:00 +8°C° 0.1 mm 1 mps 749 mmHg 83%
    19:00 +7°C° 0.4 mm 2 mps 749 mmHg 85%
    20:00 +7°C° 0.4 mm 2 mps 749 mmHg 87%
    21:00 +7°C° 0.4 mm 2 mps 749 mmHg 89%
    22:00 +7°C° 0.6 mm 2 mps 749 mmHg 90%
    23:00 +6°C° 0.6 mm 2 mps 749 mmHg 90%

    13 December, Thursday

    Time Temperature Precipitation Wind Pressure Humidity
    00:00 +6°C° 0.6 mm 2 mps 749 mmHg 91%
    01:00 +6°C° 1 mm 2 mps 749 mmHg 92%
    02:00 +6°C° 1 mm 2 mps 750 mmHg 92%
    03:00 +6°C° 1 mm 2 mps 750 mmHg 93%
    04:00 +6°C° 0.9 mm 1 mps 750 mmHg 93%
    05:00 +6°C° 0.9 mm 1 mps 750 mmHg 94%
    06:00 +6°C° 0.9 mm 1 mps 751 mmHg 94%
    07:00 +6°C° 1 mm 1 mps 751 mmHg 94%
    08:00 +5°C° 1 mm 2 mps 752 mmHg 93%
    09:00 +5°C° 1 mm 2 mps 752 mmHg 93%
    10:00 +5°C° 0.7 mm 2 mps 752 mmHg 91%
    11:00 +3°C° 0.7 mm 3 mps 753 mmHg 89%
    12:00 +3°C° 0.7 mm 4 mps 753 mmHg 87%
    13:00 +3°C° 0.2 mm 4 mps 753 mmHg 85%
    14:00 +3°C° 0.2 mm 4 mps 754 mmHg 83%
    15:00 +3°C° 0.2 mm 3 mps 754 mmHg 80%
    16:00 +3°C° 0 mm 3 mps 755 mmHg 82%
    17:00 +3°C° 0 mm 2 mps 755 mmHg 84%
    18:00 +3°C° 0 mm 2 mps 756 mmHg 85%
    19:00 +4°C° 0 mm 1 mps 756 mmHg 86%
    20:00 +3°C° 0 mm 1 mps 756 mmHg 87%
    21:00 +2°C° 0 mm 0 mps 757 mmHg 88%
    22:00 +2°C° 0 mm 0 mps 757 mmHg 89%
    23:00 +3°C° 0 mm 1 mps 757 mmHg 89%

    14 December, Friday

    Time Temperature Precipitation Wind Pressure Humidity
    00:00 +2°C° 0 mm 1 mps 757 mmHg 89%
    01:00 +2°C° 0 mm 1 mps 757 mmHg 89%
    02:00 +2°C° 0 mm 1 mps 757 mmHg 88%
    03:00 +2°C° 0 mm 1 mps 757 mmHg 87%
    04:00 +2°C° 0 mm 1 mps 757 mmHg 86%
    05:00 +2°C° 0 mm 1 mps 757 mmHg 85%
    06:00 +2°C° 0 mm 1 mps 757 mmHg 83%
    07:00 +2°C° 0 mm 1 mps 757 mmHg 81%
    08:00 +2°C° 0 mm 2 mps 758 mmHg 79%
    09:00 +2°C° 0 mm 2 mps 758 mmHg 77%
    10:00 +3°C° 0 mm 2 mps 757 mmHg 72%
    11:00 +4°C° 0 mm 2 mps 757 mmHg 68%
    12:00 +4°C° 0 mm 3 mps 757 mmHg 63%
    13:00 +4°C° 0 mm 3 mps 757 mmHg 64%
    14:00 +4°C° 0 mm 3 mps 756 mmHg 65%
    15:00 +4°C° 0 mm 3 mps 756 mmHg 66%
    16:00 +3°C° 0 mm 3 mps 756 mmHg 69%
    17:00 +2°C° 0 mm 3 mps 757 mmHg 73%
    18:00 +2°C° 0 mm 3 mps 757 mmHg 77%
    19:00 +1°C° 0 mm 3 mps 757 mmHg 77%
    20:00 +1°C° 0 mm 3 mps 757 mmHg 78%
    21:00 +1°C° 0 mm 3 mps 757 mmHg 78%
    22:00 +1°C° 0 mm 3 mps 757 mmHg 79%
    23:00 +1°C° 0 mm 3 mps 757 mmHg 80%

    15 December, Saturday

    Time Temperature Precipitation Wind Pressure Humidity
    00:00 0°C° 0 mm 3 mps 757 mmHg 81%
    01:00 0°C° 0 mm 3 mps 757 mmHg 81%
    02:00 0°C° 0 mm 3 mps 758 mmHg 81%
    03:00 0°C° 0 mm 3 mps 758 mmHg 81%
    04:00 0°C° 0 mm 3 mps 758 mmHg 82%
    05:00 0°C° 0 mm 3 mps 758 mmHg 82%
    06:00 0°C° 0 mm 3 mps 758 mmHg 82%
    07:00 0°C° 0 mm 3 mps 758 mmHg 81%
    08:00 0°C° 0 mm 3 mps 758 mmHg 79%
    09:00 +1°C° 0 mm 3 mps 758 mmHg 78%
    10:00 +2°C° 0 mm 3 mps 758 mmHg 75%
    11:00 +2°C° 0 mm 3 mps 758 mmHg 72%
    12:00 +3°C° 0 mm 3 mps 758 mmHg 69%
    13:00 +4°C° 0.1 mm 2 mps 758 mmHg 70%
    14:00 +4°C° 0.1 mm 2 mps 759 mmHg 72%
    15:00 +4°C° 0.1 mm 2 mps 759 mmHg 74%
    16:00 +4°C° 0.1 mm 2 mps 759 mmHg 76%
    17:00 +4°C° 0.1 mm 2 mps 759 mmHg 78%
    18:00 +3°C° 0.1 mm 2 mps 760 mmHg 80%
    19:00 +3°C° 0 mm 2 mps 760 mmHg 81%
    20:00 +3°C° 0 mm 2 mps 760 mmHg 82%
    21:00 +2°C° 0 mm 2 mps 760 mmHg 83%
    22:00 +2°C° 0 mm 2 mps 760 mmHg 85%
    23:00 +2°C° 0 mm 2 mps 760 mmHg 87%
    Show more